Time,TemperatureF,DewpointF,PressureIn,WindDirection,WindDirectionDegrees,WindSpeedMPH,WindSpeedGustMPH,Humidity,HourlyPrecipIn,Conditions,Clouds,dailyrainin,SoftwareType,DateUTC
2013-11-17 00:06:00,38.5,35.0,29.74,WSW,243,0.0,0.0,87,0.00,,,0.01,weatherlink.com 1.10,2013-11-17 08:06:00,
2013-11-17 00:21:00,38.3,35.0,29.75,WSW,243,1.0,2.0,87,0.00,,,0.00,weatherlink.com 1.10,2013-11-17 08:21:00,
2013-11-17 00:36:00,37.9,34.0,29.75,WSW,243,2.0,3.0,87,0.00,,,0.00,weatherlink.com 1.10,2013-11-17 08:36:00,
2013-11-17 00:51:00,36.9,34.0,29.75,WSW,243,0.0,0.0,89,0.00,,,0.00,weatherlink.com 1.10,2013-11-17 08:51:00,
2013-11-17 01:06:00,37.0,35.0,29.75,WSW,243,0.0,0.0,91,0.00,,,0.00,weatherlink.com 1.10,2013-11-17 09:06:00,
2013-11-17 01:21:00,38.0,35.0,29.76,WSW,243,0.0,0.0,90,0.00,,,0.00,weatherlink.com 1.10,2013-11-17 09:21:00,
2013-11-17 01:36:00,37.9,35.0,29.76,WSW,243,0.0,0.0,89,0.00,,,0.00,weatherlink.com 1.10,2013-11-17 09:36:00,
2013-11-17 01:51:00,36.8,34.0,29.76,WSW,242,0.0,0.0,90,0.00,,,0.00,weatherlink.com 1.10,2013-11-17 09:51:00,
2013-11-17 02:06:00,36.9,35.0,29.76,East,81,0.0,0.0,91,0.00,,,0.00,weatherlink.com 1.10,2013-11-17 10:06:00,
2013-11-17 02:22:00,37.1,35.0,29.76,East,81,0.0,0.0,92,0.00,,,0.00,weatherlink.com 1.10,2013-11-17 10:22:00,
2013-11-17 02:37:00,37.6,35.0,29.77,East,82,5.0,5.0,89,0.00,,,0.00,weatherlink.com 1.10,2013-11-17 10:37:00,
2013-11-17 02:52:00,38.6,36.0,29.78,East,90,0.0,6.0,90,0.00,,,0.00,weatherlink.com 1.10,2013-11-17 10:52:00,
2013-11-17 03:07:00,38.6,36.0,29.78,East,90,2.0,3.0,91,0.00,,,0.00,weatherlink.com 1.10,2013-11-17 11:07:00,
2013-11-17 03:22:00,40.1,37.0,29.77,East,91,5.0,8.0,88,0.00,,,0.00,weatherlink.com 1.10,2013-11-17 11:22:00,
2013-11-17 03:37:00,40.7,37.0,29.78,East,93,2.0,7.0,87,0.00,,,0.00,weatherlink.com 1.10,2013-11-17 11:37:00,
2013-11-17 03:52:00,41.5,38.0,29.78,East,92,2.0,6.0,86,0.00,,,0.00,weatherlink.com 1.10,2013-11-17 11:52:00,
2013-11-17 04:07:00,41.7,38.0,29.78,East,92,1.0,3.0,87,0.00,,,0.00,weatherlink.com 1.10,2013-11-17 12:07:00,
2013-11-17 04:22:00,42.0,39.0,29.78,East,92,0.0,3.0,88,0.00,,,0.00,weatherlink.com 1.10,2013-11-17 12:22:00,
2013-11-17 04:37:00,42.4,39.0,29.78,East,93,5.0,5.0,89,0.00,,,0.00,weatherlink.com 1.10,2013-11-17 12:37:00,
2013-11-17 04:52:00,42.9,41.0,29.77,East,88,6.0,6.0,91,0.00,,,0.00,weatherlink.com 1.10,2013-11-17 12:52:00,
2013-11-17 05:07:00,42.8,40.0,29.77,ESE,119,7.0,9.0,91,0.00,,,0.00,weatherlink.com 1.10,2013-11-17 13:07:00,
2013-11-17 05:22:00,42.7,41.0,29.77,SE,129,2.0,6.0,92,0.00,,,0.00,weatherlink.com 1.10,2013-11-17 13:22:00,
2013-11-17 05:37:00,42.8,41.0,29.77,South,174,5.0,7.0,92,0.02,,,0.02,weatherlink.com 1.10,2013-11-17 13:37:00,
2013-11-17 05:52:00,42.7,41.0,29.77,South,183,0.0,5.0,93,0.03,,,0.03,weatherlink.com 1.10,2013-11-17 13:52:00,
2013-11-17 06:07:00,42.6,41.0,29.77,East,83,1.0,7.0,93,0.03,,,0.03,weatherlink.com 1.10,2013-11-17 14:07:00,
2013-11-17 06:22:00,42.5,41.0,29.77,East,84,6.0,9.0,94,0.03,,,0.03,weatherlink.com 1.10,2013-11-17 14:22:00,
2013-11-17 06:37:00,42.4,41.0,29.77,East,95,2.0,13.0,94,0.01,,,0.03,weatherlink.com 1.10,2013-11-17 14:37:00,
2013-11-17 06:52:00,42.5,41.0,29.77,East,100,9.0,12.0,93,0.00,,,0.03,weatherlink.com 1.10,2013-11-17 14:52:00,
2013-11-17 07:07:00,42.6,41.0,29.77,ESE,116,2.0,10.0,93,0.00,,,0.03,weatherlink.com 1.10,2013-11-17 15:07:00,
2013-11-17 07:22:00,42.8,41.0,29.77,ENE,77,5.0,10.0,93,0.00,,,0.03,weatherlink.com 1.10,2013-11-17 15:22:00,
2013-11-17 07:37:00,42.8,41.0,29.77,ESE,107,5.0,8.0,93,0.00,,,0.03,weatherlink.com 1.10,2013-11-17 15:37:00,
2013-11-17 07:52:00,43.1,41.0,29.77,East,93,9.0,14.0,93,0.00,,,0.03,weatherlink.com 1.10,2013-11-17 15:52:00,
2013-11-17 08:07:00,43.1,41.0,29.77,East,95,9.0,15.0,93,0.00,,,0.03,weatherlink.com 1.10,2013-11-17 16:07:00,
2013-11-17 08:22:00,43.1,41.0,29.77,East,93,5.0,13.0,93,0.00,,,0.03,weatherlink.com 1.10,2013-11-17 16:22:00,
2013-11-17 08:37:00,43.4,42.0,29.78,South,181,3.0,16.0,94,0.00,,,0.03,weatherlink.com 1.10,2013-11-17 16:37:00,
2013-11-17 08:52:00,43.7,42.0,29.78,East,80,2.0,14.0,93,0.00,,,0.03,weatherlink.com 1.10,2013-11-17 16:52:00,
2013-11-17 09:07:00,44.2,42.0,29.79,ESE,120,4.0,9.0,93,0.00,,,0.03,weatherlink.com 1.10,2013-11-17 17:07:00,
2013-11-17 09:22:00,44.7,42.0,29.79,SSE,160,5.0,8.0,91,0.00,,,0.03,weatherlink.com 1.10,2013-11-17 17:22:00,
2013-11-17 09:37:00,45.1,42.0,29.79,South,174,5.0,7.0,90,0.00,,,0.03,weatherlink.com 1.10,2013-11-17 17:37:00,
2013-11-17 09:52:00,45.2,43.0,29.79,East,85,5.0,10.0,91,0.00,,,0.03,weatherlink.com 1.10,2013-11-17 17:52:00,
2013-11-17 10:07:00,45.5,43.0,29.80,South,177,4.0,8.0,90,0.00,,,0.03,weatherlink.com 1.10,2013-11-17 18:07:00,
2013-11-17 10:23:00,46.2,43.0,29.80,SW,230,6.0,13.0,89,0.00,,,0.03,weatherlink.com 1.10,2013-11-17 18:23:00,
2013-11-17 10:38:00,46.6,43.0,29.81,SW,224,4.0,13.0,88,0.00,,,0.03,weatherlink.com 1.10,2013-11-17 18:38:00,
2013-11-17 10:53:00,46.7,43.0,29.81,WSW,251,5.0,7.0,88,0.00,,,0.03,weatherlink.com 1.10,2013-11-17 18:53:00,
2013-11-17 11:08:00,46.7,43.0,29.81,SW,216,6.0,10.0,88,0.00,,,0.03,weatherlink.com 1.10,2013-11-17 19:08:00,
2013-11-17 11:23:00,47.2,44.0,29.81,WSW,239,6.0,9.0,87,0.00,,,0.03,weatherlink.com 1.10,2013-11-17 19:23:00,
2013-11-17 11:38:00,47.6,43.0,29.80,SE,125,1.0,10.0,85,0.00,,,0.03,weatherlink.com 1.10,2013-11-17 19:38:00,
2013-11-17 11:53:00,48.1,43.0,29.80,SSE,163,3.0,10.0,83,0.00,,,0.03,weatherlink.com 1.10,2013-11-17 19:53:00,
2013-11-17 12:08:00,48.8,43.0,29.80,SSW,192,3.0,10.0,81,0.00,,,0.03,weatherlink.com 1.10,2013-11-17 20:08:00,
2013-11-17 12:23:00,49.5,43.0,29.80,WSW,241,9.0,13.0,79,0.00,,,0.03,weatherlink.com 1.10,2013-11-17 20:23:00,
2013-11-17 12:38:00,48.9,43.0,29.79,SSW,208,4.0,9.0,81,0.00,,,0.03,weatherlink.com 1.10,2013-11-17 20:38:00,
2013-11-17 12:53:00,48.9,44.0,29.79,SSE,147,5.0,14.0,83,0.00,,,0.03,weatherlink.com 1.10,2013-11-17 20:53:00,
2013-11-17 13:08:00,49.2,44.0,29.79,South,189,5.0,8.0,82,0.00,,,0.03,weatherlink.com 1.10,2013-11-17 21:08:00,
2013-11-17 13:23:00,50.3,45.0,29.79,SSW,192,2.0,8.0,82,0.00,,,0.03,weatherlink.com 1.10,2013-11-17 21:23:00,
2013-11-17 13:38:00,50.6,45.0,29.79,SSW,202,2.0,13.0,80,0.00,,,0.03,weatherlink.com 1.10,2013-11-17 21:38:00,
2013-11-17 13:53:00,50.5,44.0,29.79,ESE,109,4.0,12.0,79,0.01,,,0.04,weatherlink.com 1.10,2013-11-17 21:53:00,
2013-11-17 14:08:00,50.4,44.0,29.79,WSW,253,6.0,15.0,78,0.01,,,0.04,weatherlink.com 1.10,2013-11-17 22:08:00,
2013-11-17 14:23:00,50.4,44.0,29.79,South,186,6.0,13.0,79,0.01,,,0.04,weatherlink.com 1.10,2013-11-17 22:23:00,
2013-11-17 14:38:00,50.5,45.0,29.79,South,188,4.0,17.0,80,0.01,,,0.04,weatherlink.com 1.10,2013-11-17 22:38:00,
2013-11-17 14:53:00,50.3,44.0,29.79,West,261,7.0,11.0,80,0.00,,,0.04,weatherlink.com 1.10,2013-11-17 22:53:00,
2013-11-17 15:08:00,50.2,44.0,29.80,SW,225,4.0,11.0,80,0.00,,,0.04,weatherlink.com 1.10,2013-11-17 23:08:00,
2013-11-17 15:23:00,49.8,44.0,29.81,West,260,8.0,16.0,79,0.00,,,0.04,weatherlink.com 1.10,2013-11-17 23:23:00,
2013-11-17 15:38:00,49.1,44.0,29.81,WSW,247,10.0,22.0,81,0.00,,,0.04,weatherlink.com 1.10,2013-11-17 23:38:00,
2013-11-17 15:53:00,48.5,43.0,29.82,WSW,251,11.0,20.0,82,0.00,,,0.04,weatherlink.com 1.10,2013-11-17 23:53:00,
2013-11-17 16:08:00,48.2,43.0,29.82,SW,220,11.0,19.0,83,0.00,,,0.04,weatherlink.com 1.10,2013-11-18 00:08:00,
2013-11-17 16:23:00,48.0,43.0,29.83,SW,235,5.0,17.0,83,0.00,,,0.04,weatherlink.com 1.10,2013-11-18 00:23:00,
2013-11-17 16:38:00,47.7,43.0,29.83,SW,218,9.0,17.0,84,0.00,,,0.04,weatherlink.com 1.10,2013-11-18 00:38:00,
2013-11-17 16:53:00,47.6,43.0,29.83,WSW,245,7.0,17.0,84,0.00,,,0.04,weatherlink.com 1.10,2013-11-18 00:53:00,
2013-11-17 17:08:00,47.4,43.0,29.84,WSW,255,11.0,15.0,85,0.00,,,0.04,weatherlink.com 1.10,2013-11-18 01:08:00,
2013-11-17 17:23:00,47.3,43.0,29.84,WSW,249,11.0,15.0,84,0.00,,,0.04,weatherlink.com 1.10,2013-11-18 01:23:00,
2013-11-17 17:38:00,47.2,44.0,29.85,SW,220,4.0,13.0,87,0.00,,,0.04,weatherlink.com 1.10,2013-11-18 01:38:00,
2013-11-17 17:53:00,46.7,43.0,29.85,SSE,164,7.0,12.0,88,0.00,,,0.04,weatherlink.com 1.10,2013-11-18 01:53:00,
2013-11-17 18:08:00,46.8,43.0,29.85,WSW,246,1.0,10.0,87,0.00,,,0.04,weatherlink.com 1.10,2013-11-18 02:08:00,
2013-11-17 18:23:00,46.9,43.0,29.85,South,179,2.0,11.0,87,0.00,,,0.04,weatherlink.com 1.10,2013-11-18 02:23:00,
2013-11-17 18:38:00,46.8,44.0,29.85,SW,229,2.0,8.0,89,0.00,,,0.04,weatherlink.com 1.10,2013-11-18 02:38:00,
2013-11-17 18:53:00,47.2,44.0,29.85,WSW,258,9.0,17.0,88,0.00,,,0.04,weatherlink.com 1.10,2013-11-18 02:53:00,
2013-11-17 19:08:00,47.2,44.0,29.86,WSW,243,5.0,16.0,88,0.00,,,0.04,weatherlink.com 1.10,2013-11-18 03:08:00,
2013-11-17 19:23:00,46.9,44.0,29.86,WSW,240,7.0,12.0,90,0.00,,,0.04,weatherlink.com 1.10,2013-11-18 03:23:00,
2013-11-17 19:38:00,46.7,44.0,29.85,SW,218,4.0,9.0,90,0.00,,,0.04,weatherlink.com 1.10,2013-11-18 03:38:00,
2013-11-17 19:53:00,46.5,44.0,29.86,SSW,204,6.0,9.0,91,0.00,,,0.04,weatherlink.com 1.10,2013-11-18 03:53:00,
2013-11-17 20:08:00,46.6,44.0,29.86,SW,233,2.0,9.0,91,0.00,,,0.04,weatherlink.com 1.10,2013-11-18 04:08:00,
2013-11-17 20:23:00,46.7,44.0,29.86,WSW,243,0.0,9.0,90,0.00,,,0.04,weatherlink.com 1.10,2013-11-18 04:23:00,
2013-11-17 20:38:00,46.6,44.0,29.86,WSW,243,5.0,7.0,90,0.00,,,0.04,weatherlink.com 1.10,2013-11-18 04:38:00,
2013-11-17 20:53:00,46.6,44.0,29.86,WSW,245,3.0,8.0,90,0.00,,,0.04,weatherlink.com 1.10,2013-11-18 04:53:00,
2013-11-17 21:09:00,46.5,44.0,29.86,SW,227,1.0,7.0,90,0.00,,,0.04,weatherlink.com 1.10,2013-11-18 05:09:00,
2013-11-17 21:24:00,46.4,44.0,29.86,WSW,258,4.0,8.0,91,0.00,,,0.04,weatherlink.com 1.10,2013-11-18 05:24:00,
2013-11-17 21:39:00,46.6,44.0,29.87,SW,235,10.0,11.0,91,0.00,,,0.04,weatherlink.com 1.10,2013-11-18 05:39:00,
2013-11-17 21:54:00,46.6,44.0,29.87,SSW,197,6.0,9.0,91,0.00,,,0.04,weatherlink.com 1.10,2013-11-18 05:54:00,
2013-11-17 22:09:00,46.4,44.0,29.87,SW,217,3.0,10.0,91,0.00,,,0.04,weatherlink.com 1.10,2013-11-18 06:09:00,
2013-11-17 22:24:00,46.3,44.0,29.88,WSW,248,6.0,9.0,92,0.00,,,0.04,weatherlink.com 1.10,2013-11-18 06:24:00,
2013-11-17 22:39:00,46.3,44.0,29.88,SW,227,9.0,11.0,93,0.00,,,0.04,weatherlink.com 1.10,2013-11-18 06:39:00,
2013-11-17 22:54:00,46.1,44.0,29.88,SW,233,3.0,10.0,93,0.00,,,0.04,weatherlink.com 1.10,2013-11-18 06:54:00,
2013-11-17 23:09:00,45.9,44.0,29.88,SW,219,5.0,11.0,94,0.00,,,0.04,weatherlink.com 1.10,2013-11-18 07:09:00,
2013-11-17 23:24:00,45.9,44.0,29.88,WSW,243,3.0,7.0,92,0.00,,,0.04,weatherlink.com 1.10,2013-11-18 07:24:00,
2013-11-17 23:39:00,46.0,44.0,29.89,SW,226,3.0,6.0,91,0.00,,,0.04,weatherlink.com 1.10,2013-11-18 07:39:00,
2013-11-17 23:54:00,45.9,44.0,29.88,SSW,207,3.0,6.0,92,0.00,,,0.04,weatherlink.com 1.10,2013-11-18 07:54:00,